ASA173 PASI-PAJN

Flight info

Callsign ASA173
Flight time 0h 37m
Altitude 13000
Route HAWRD5 TNAKY
Aircraft A320/M-SDE3FGHIRWY/LB1

Departure

Time 2026-04-22 00:03
Airport Sitka Rocky Gutierrez Airport (PASI)

Arrival

Time 2026-04-22 00:40
Airport Juneau International Airport (PAJN)
Time Latitude Longitude Altitude Speed Heading
2026-04-21 23:40 57.05235 -135.36605 35 ft 0 kts 76°
2026-04-21 23:55 57.05232 -135.36625 35 ft 4 kts 67°
2026-04-21 23:55 57.05218 -135.36664 35 ft 4 kts 33°
2026-04-21 23:55 57.05194 -135.36680 35 ft 4 kts
2026-04-21 23:55 57.05168 -135.36676 35 ft 4 kts 343°
2026-04-21 23:56 57.05143 -135.36657 35 ft 4 kts 326°
2026-04-21 23:56 57.05132 -135.36642 34 ft 0 kts 315°
2026-04-21 23:59 57.05134 -135.36646 34 ft 4 kts 315°
2026-04-22 00:00 57.05193 -135.36752 34 ft 13 kts 316°
2026-04-22 00:00 57.05256 -135.36863 33 ft 14 kts 316°
2026-04-22 00:00 57.05352 -135.37038 34 ft 21 kts 317°
2026-04-22 00:00 57.05376 -135.37227 36 ft 12 kts 234°
2026-04-22 00:01 57.05320 -135.37272 36 ft 7 kts 136°
2026-04-22 00:01 57.05297 -135.37218 36 ft 0 kts 136°
2026-04-22 00:02 57.05295 -135.37214 27 ft 4 kts 136°
2026-04-22 00:02 57.05110 -135.36896 37 ft 77 kts 137°
2026-04-22 00:02 57.04565 -135.35916 36 ft 139 kts 136°
2026-04-22 00:02 57.03823 -135.34413 322 ft 161 kts 135°
2026-04-22 00:03 57.03097 -135.33006 1143 ft 150 kts 149°
2026-04-22 00:03 57.02154 -135.32236 1722 ft 150 kts 165°
2026-04-22 00:03 57.01085 -135.32028 2101 ft 164 kts 184°
2026-04-22 00:03 56.99916 -135.32545 2409 ft 184 kts 207°
2026-04-22 00:04 56.98826 -135.33997 2698 ft 206 kts 228°
2026-04-22 00:04 56.97930 -135.36230 3139 ft 229 kts 243°
2026-04-22 00:04 56.97368 -135.39047 3791 ft 241 kts 261°
2026-04-22 00:04 56.97286 -135.42099 4763 ft 241 kts 277°
2026-04-22 00:05 56.97710 -135.45083 5697 ft 244 kts 293°
2026-04-22 00:05 56.98628 -135.47721 6639 ft 249 kts 310°
2026-04-22 00:05 56.99983 -135.49730 7540 ft 254 kts 328°
2026-04-22 00:05 57.01646 -135.50869 8505 ft 258 kts 345°
2026-04-22 00:06 57.03424 -135.51352 9539 ft 257 kts 347°
2026-04-22 00:06 57.05196 -135.51815 10417 ft 262 kts 346°
2026-04-22 00:06 57.07073 -135.52330 10712 ft 285 kts 346°
2026-04-22 00:06 57.09112 -135.52904 10905 ft 308 kts 346°
2026-04-22 00:07 57.11312 -135.53523 11066 ft 331 kts 347°
2026-04-22 00:07 57.13679 -135.53966 11339 ft 352 kts 354°
2026-04-22 00:07 57.16161 -135.53593 11944 ft 364 kts
2026-04-22 00:07 57.18647 -135.52427 12645 ft 372 kts
2026-04-22 00:08 57.21143 -135.51109 12947 ft 373 kts
2026-04-22 00:08 57.23666 -135.49797 13021 ft 382 kts
2026-04-22 00:08 57.26236 -135.48473 13019 ft 384 kts
2026-04-22 00:08 57.28814 -135.47134 13015 ft 385 kts
2026-04-22 00:09 57.31394 -135.45785 13020 ft 385 kts
2026-04-22 00:09 57.33970 -135.44428 13004 ft 385 kts
2026-04-22 00:09 57.36548 -135.43067 13009 ft 386 kts
2026-04-22 00:09 57.39127 -135.41704 12996 ft 384 kts 10°
2026-04-22 00:10 57.41679 -135.40352 13004 ft 380 kts
2026-04-22 00:10 57.44159 -135.39028 12981 ft 362 kts
2026-04-22 00:10 57.46554 -135.37739 12623 ft 353 kts
2026-04-22 00:10 57.48870 -135.36496 12358 ft 340 kts
2026-04-22 00:11 57.51079 -135.35314 12124 ft 330 kts
2026-04-22 00:11 57.53259 -135.34155 11857 ft 321 kts
2026-04-22 00:11 57.55371 -135.33032 11593 ft 309 kts
2026-04-22 00:11 57.57367 -135.31966 11335 ft 288 kts
2026-04-22 00:12 57.59257 -135.30953 11086 ft 279 kts
2026-04-22 00:12 57.61131 -135.29955 10830 ft 277 kts
2026-04-22 00:12 57.62974 -135.28978 10574 ft 275 kts
2026-04-22 00:12 57.64783 -135.28020 10327 ft 273 kts
2026-04-22 00:13 57.66611 -135.27050 10078 ft 273 kts
2026-04-22 00:13 57.68432 -135.26080 9865 ft 272 kts
2026-04-22 00:13 57.70250 -135.25105 9723 ft 272 kts 10°
2026-04-22 00:13 57.72074 -135.24121 9583 ft 273 kts 10°
2026-04-22 00:14 57.73894 -135.23138 9452 ft 272 kts 10°
2026-04-22 00:14 57.75715 -135.22159 9301 ft 272 kts 10°
2026-04-22 00:14 57.77537 -135.21179 9165 ft 272 kts 10°
2026-04-22 00:14 57.79357 -135.20198 9031 ft 272 kts 10°
2026-04-22 00:15 57.81172 -135.19217 8918 ft 271 kts 11°
2026-04-22 00:15 57.83004 -135.18228 8784 ft 275 kts 11°
2026-04-22 00:15 57.84849 -135.17229 8641 ft 276 kts 12°
2026-04-22 00:15 57.86693 -135.16226 8509 ft 276 kts 12°
2026-04-22 00:16 57.88538 -135.15223 8375 ft 276 kts 12°
2026-04-22 00:16 57.90379 -135.14224 8237 ft 276 kts 12°
2026-04-22 00:16 57.92222 -135.13222 8113 ft 275 kts 12°
2026-04-22 00:16 57.94060 -135.12219 7973 ft 275 kts 12°
2026-04-22 00:17 57.95896 -135.11220 7844 ft 274 kts 12°
2026-04-22 00:17 57.97729 -135.10220 7712 ft 274 kts 12°
2026-04-22 00:17 57.99555 -135.09220 7576 ft 274 kts 12°
2026-04-22 00:17 58.01381 -135.08216 7446 ft 274 kts 13°
2026-04-22 00:18 58.03206 -135.07210 7315 ft 273 kts 13°
2026-04-22 00:18 58.05031 -135.06206 7067 ft 273 kts 13°
2026-04-22 00:18 58.06850 -135.05210 6741 ft 271 kts 13°
2026-04-22 00:18 58.08659 -135.04229 6471 ft 269 kts 13°
2026-04-22 00:19 58.10456 -135.03239 6352 ft 266 kts 12°
2026-04-22 00:19 58.12203 -135.02268 6232 ft 260 kts 13°
2026-04-22 00:19 58.13954 -135.01301 6086 ft 263 kts 13°
2026-04-22 00:19 58.15714 -135.00330 5955 ft 264 kts 13°
2026-04-22 00:20 58.17472 -134.99357 5957 ft 264 kts 13°
2026-04-22 00:20 58.19238 -134.98381 5791 ft 267 kts 13°
2026-04-22 00:20 58.21043 -134.97376 5325 ft 267 kts 14°
2026-04-22 00:20 58.22783 -134.96398 5189 ft 255 kts 14°
2026-04-22 00:21 58.24440 -134.95463 5061 ft 242 kts 13°
2026-04-22 00:21 58.26053 -134.94554 4562 ft 247 kts 13°
2026-04-22 00:21 58.27162 -134.93933 4098 ft 255 kts 13°
2026-04-22 00:21 58.29486 -134.92629 3442 ft 259 kts 14°
2026-04-22 00:22 58.30614 -134.91988 3323 ft 252 kts 13°
2026-04-22 00:22 58.32252 -134.91057 3198 ft 240 kts 14°
2026-04-22 00:22 58.33805 -134.90170 3110 ft 227 kts 15°
2026-04-22 00:22 58.35161 -134.88698 3025 ft 227 kts 45°
2026-04-22 00:23 58.35933 -134.86182 2863 ft 218 kts 77°
2026-04-22 00:23 58.36023 -134.83392 2689 ft 206 kts 93°
2026-04-22 00:23 58.36001 -134.80726 2491 ft 196 kts 92°
2026-04-22 00:23 58.35984 -134.78215 2266 ft 184 kts 92°
2026-04-22 00:24 58.35969 -134.75879 1976 ft 170 kts 92°
2026-04-22 00:24 58.35949 -134.73640 1754 ft 184 kts 92°
2026-04-22 00:24 58.35925 -134.70927 1655 ft 222 kts 91°
2026-04-22 00:24 58.35930 -134.67688 1414 ft 271 kts 91°
2026-04-22 00:25 58.35931 -134.63903 1696 ft 286 kts 92°
2026-04-22 00:25 58.35832 -134.60339 2068 ft 260 kts 104°
2026-04-22 00:25 58.35392 -134.57031 2472 ft 258 kts 106°
2026-04-22 00:25 58.34900 -134.53746 2862 ft 258 kts 112°
2026-04-22 00:26 58.34055 -134.50755 3254 ft 257 kts 128°
2026-04-22 00:26 58.32831 -134.48286 3648 ft 257 kts 143°
2026-04-22 00:26 58.31438 -134.46140 4043 ft 259 kts 144°
2026-04-22 00:26 58.30083 -134.43852 4441 ft 263 kts 136°
2026-04-22 00:27 58.28841 -134.41257 4849 ft 266 kts 135°
2026-04-22 00:27 58.27589 -134.38639 5241 ft 269 kts 135°
2026-04-22 00:27 58.26330 -134.36005 5636 ft 270 kts 135°
2026-04-22 00:27 58.25061 -134.33351 6042 ft 273 kts 135°
2026-04-22 00:28 58.23654 -134.30960 6445 ft 271 kts 154°
2026-04-22 00:28 58.21881 -134.29989 6825 ft 265 kts 183°
2026-04-22 00:28 58.20073 -134.30467 7223 ft 263 kts 196°
2026-04-22 00:28 58.18289 -134.31300 7598 ft 265 kts 198°
2026-04-22 00:29 58.16513 -134.32309 7987 ft 266 kts 209°
2026-04-22 00:29 58.15043 -134.34360 8385 ft 263 kts 232°
2026-04-22 00:29 58.14166 -134.37343 8794 ft 260 kts 256°
2026-04-22 00:29 58.14008 -134.40733 8992 ft 260 kts 277°
2026-04-22 00:30 58.14256 -134.44135 9009 ft 261 kts 278°
2026-04-22 00:30 58.14513 -134.47529 9018 ft 261 kts 278°
2026-04-22 00:30 58.14768 -134.50931 9012 ft 261 kts 278°
2026-04-22 00:30 58.15019 -134.54323 9012 ft 260 kts 278°
2026-04-22 00:31 58.15266 -134.57709 9010 ft 260 kts 278°
2026-04-22 00:31 58.15511 -134.61100 9008 ft 260 kts 277°
2026-04-22 00:31 58.15748 -134.64416 9005 ft 246 kts 277°
2026-04-22 00:31 58.15969 -134.67528 9005 ft 231 kts 277°
2026-04-22 00:32 58.16175 -134.70445 9004 ft 219 kts 278°
2026-04-22 00:32 58.16374 -134.73282 9008 ft 216 kts 278°
2026-04-22 00:32 58.16573 -134.76106 9009 ft 217 kts 277°
2026-04-22 00:32 58.16776 -134.78948 8996 ft 218 kts 277°
2026-04-22 00:33 58.16974 -134.81773 9001 ft 217 kts 277°
2026-04-22 00:33 58.17171 -134.84590 8776 ft 215 kts 277°
2026-04-22 00:33 58.17368 -134.87400 8435 ft 216 kts 278°
2026-04-22 00:33 58.17566 -134.90212 8081 ft 215 kts 278°
2026-04-22 00:34 58.18038 -134.92886 7737 ft 215 kts 298°
2026-04-22 00:34 58.19002 -134.95055 7386 ft 218 kts 319°
2026-04-22 00:34 58.20347 -134.96417 7015 ft 223 kts 340°
2026-04-22 00:34 58.21901 -134.96728 6648 ft 229 kts
2026-04-22 00:35 58.23458 -134.96013 6267 ft 232 kts 14°
2026-04-22 00:35 58.25007 -134.95138 5901 ft 232 kts 13°
2026-04-22 00:35 58.26550 -134.94274 5580 ft 231 kts 13°
2026-04-22 00:35 58.28084 -134.93407 5273 ft 229 kts 13°
2026-04-22 00:36 58.29608 -134.92541 4945 ft 228 kts 13°
2026-04-22 00:36 58.31126 -134.91680 4597 ft 227 kts 13°
2026-04-22 00:36 58.32640 -134.90825 4264 ft 227 kts 13°
2026-04-22 00:36 58.34147 -134.89967 3925 ft 226 kts 16°
2026-04-22 00:37 58.35451 -134.88325 3628 ft 229 kts 52°
2026-04-22 00:37 58.36020 -134.85567 3366 ft 225 kts 89°
2026-04-22 00:37 58.35971 -134.82676 3265 ft 209 kts 93°
2026-04-22 00:37 58.35950 -134.80036 3140 ft 190 kts 92°
2026-04-22 00:38 58.35944 -134.77637 2981 ft 172 kts 92°
2026-04-22 00:38 58.35937 -134.75444 2764 ft 161 kts 92°
2026-04-22 00:38 58.35928 -134.73346 2419 ft 158 kts 92°
2026-04-22 00:38 58.35919 -134.71254 2053 ft 157 kts 92°
2026-04-22 00:39 58.35909 -134.69185 1938 ft 159 kts 91°
2026-04-22 00:39 58.35918 -134.67098 1698 ft 156 kts 90°
2026-04-22 00:39 58.35934 -134.64994 1236 ft 163 kts 92°
2026-04-22 00:39 58.35961 -134.62796 697 ft 168 kts 92°
2026-04-22 00:40 58.35904 -134.60588 173 ft 163 kts 104°
2026-04-22 00:40 58.35619 -134.58636 43 ft 139 kts 105°
2026-04-22 00:40 58.35435 -134.57227 35 ft 66 kts 104°
2026-04-22 00:40 58.35380 -134.56658 33 ft 22 kts 58°
2026-04-22 00:41 58.35460 -134.56663 33 ft 9 kts 319°
2026-04-22 00:41 58.35485 -134.56765 34 ft 13 kts 283°
2026-04-22 00:41 58.35518 -134.56988 34 ft 18 kts 285°
2026-04-22 00:41 58.35549 -134.57206 34 ft 16 kts 286°
2026-04-22 00:42 58.35577 -134.57408 34 ft 15 kts 283°
2026-04-22 00:42 58.35601 -134.57594 34 ft 14 kts 284°
2026-04-22 00:42 58.35625 -134.57767 34 ft 13 kts 285°
2026-04-22 00:42 58.35648 -134.57927 34 ft 12 kts 285°
2026-04-22 00:43 58.35669 -134.58075 34 ft 11 kts 284°
2026-04-22 00:43 58.35688 -134.58212 34 ft 10 kts 284°
2026-04-22 00:43 58.35730 -134.58298 34 ft 9 kts 343°
2026-04-22 00:43 58.35785 -134.58304 32 ft 7 kts
2026-04-22 00:44 58.35827 -134.58301 34 ft 0 kts
2026-04-22 00:44 58.35828 -134.58301 34 ft 0 kts